Flag for Germany Weather past 2 weeks in Meppen, Lower Saxony, Germany

Now
53 °F

Cool.


Feels Like: 53 °F
Forecast: 42 / 53 °F
Wind: 2 mph from Southwest

Location: Meppen

Current Time: Apr 26, 2015 at 7:11:25 AM

Latest Report: Apr 26, 2015 at 6:00 AM


Visibility: 3 mi

Pressure: 29.70 "Hg

Humidity: 93%

Dew point: 51 °F

Location of MeppenLocation

Historic Weather in Meppen — Graph

°F

Meppen temperature yesterday

Maximum temperature yesterday: 58 °F (at 4:00 PM)
Minimum temperature yesterday: 51 °F (at 1:00 AM)
Average temperature yesterday: 54 °F

Past Weeks' High & Low Weather Summary

 TemperatureHumidityPressure
High72 °F (Apr 15, 4:00 PM)96% (Apr 24, 7:00 AM)30.48 "Hg (Apr 24, 7:00 AM)
Low31 °F (Apr 18, 7:00 AM)29% (Apr 19, 6:00 PM)29.70 "Hg (Apr 25, 6:00 PM)
Average49 °F69%30.17 "Hg
* Reported Apr 11 4:00 AM — Apr 26 4:00 AM, Meppen, Weather by CustomWeather, © 2015

Note: Actual official high and low records may vary slightly from our data, if they occured in-between our weather recording intervals... More about our weather records

Advertising

Meppen weather history for previous 24 hours

 ConditionsComfort  
Time TempWeatherWind HumidityBarometerVisibility
4:00 AM
Sun, Apr 26
53 °FCool.2 mph93%29.72 "Hg2 mi
3:00 AM53 °FCool.2 mph93%29.72 "Hg2 mi
2:00 AM53 °FCool.2 mph93%29.73 "Hg2 mi
1:00 AM53 °FCool.2 mph93%29.73 "Hg2 mi
12:00 AM53 °FCool.2 mph93%29.73 "Hg2 mi
10:00 PM
Sat, Apr 25
53 °FCool.2 mph93%29.74 "Hg2 mi
9:00 PM54 °FCool.3 mph92%29.72 "Hg3 mi
7:00 PM55 °FCool.3 mph88%29.71 "Hg4 mi
6:00 PM56 °FCool.3 mph78%29.70 "Hg2 mi
4:00 PM58 °FCool.5 mph72%29.72 "Hg6 mi
3:00 PM57 °FCool.6 mph78%29.73 "Hg5 mi
1:00 PM53 °FCool.5 mph87%29.74 "Hg3 mi
12:00 PM53 °FCool.5 mph90%29.74 "Hg3 mi
10:00 AM53 °FCool.2 mph82%29.74 "Hg3 mi
9:00 AM53 °FCool.3 mph80%29.74 "Hg4 mi
7:00 AM52 °FCool.2 mph76%29.73 "Hg5 mi
Weather by CustomWeather, © 2015

See weather overviewHow to use our weather pages